[[{"header":{"parameterUnit":"m.s-1","parameterCategory":1,"la1":30.2991,"la2":30.254,"lo1":-89.0895,"lo2":-89.0444,"dy":0.0017,"dx":0.0017,"nx":28,"ny":28,"refTime":"2024-05-21T09:00:00:Z","depth":0,"parameterNumber":2,"parameterNumberName":"U-component_of_WINDS"},"data":[0,0,0,0,0,0,0,0,0,0,0,0,0,0,0,0,0,0,0,0,0,0,0,0,0,0,0,0,0,0,0,0,0,0,0,0,0,0,0,0,0,0,0,0,0,0,0,0,0,0,0,0,0,0,0,0,0,0,-4.1478,-4.1478,0,-4.1476,-4.1476,-4.1476,-4.1404,-4.1402,-4.14,-4.1398,-4.1398,-4.14,-4.1402,0,0,0,0,0,0,0,0,0,0,0,0,0,-4.1423,-4.1424,-4.1478,-4.1478,-4.1478,-4.1476,-4.1476,-4.1476,-4.1404,-4.1402,-4.14,-4.1397,-4.1398,-4.14,-4.1402,0,0,0,0,0,0,0,0,0,0,0,0,0,-4.1436,-4.1424,-4.1478,-4.1442,-4.1439,-4.1476,-4.1476,-4.1476,-4.1405,-4.1402,-4.1399,-4.1396,-4.1397,-4.1399,-4.1402,-4.1474,0,0,-4.141,-4.1411,0,0,0,0,0,0,0,0,-4.1436,-4.1438,-4.1447,-4.1444,-4.1441,-4.1437,-4.1456,-4.1476,-4.1405,-4.1418,-4.1398,-4.1395,-4.1414,-4.1415,-4.142,-4.1474,-4.1474,-4.141,-4.1412,-4.1413,-4.1414,0,0,0,0,0,0,0,-4.1435,-4.1438,-4.1477,-4.1447,-4.1444,-4.1427,-4.1426,-4.146,-4.1431,-4.1416,-4.1411,-4.1412,-4.1411,-4.1418,-4.142,-4.1474,-4.141,-4.1412,-4.1414,-4.1415,-4.1589,-4.1592,0,0,0,0,0,0,-4.1438,-4.1438,-4.1477,-4.1477,-4.1431,-4.143,-4.1429,-4.1441,-4.1431,-4.1426,-4.1414,-4.1408,-4.1415,-4.1417,-4.142,-4.1504,-4.1413,-4.1415,-4.1417,-4.1586,-4.159,-4.1593,0,0,0,0,0,0,-4.1438,-4.1443,-4.1477,-4.1456,-4.1459,-4.1434,-4.1449,-4.1443,-4.1449,-4.1429,-4.1424,-4.1426,-4.1413,-4.1416,-4.1462,-4.1503,-4.1416,-4.1419,-4.1583,-4.1587,-4.1592,-4.1673,0,0,0,0,0,0,-4.1436,-4.1443,-4.1469,-4.1457,-4.1461,-4.1518,-4.1451,-4.1445,-4.1454,-4.1446,-4.1439,-4.1435,-4.1411,-4.1458,-4.1464,-4.1505,-4.1421,-4.1579,-4.1585,-4.159,-4.1666,-4.168,-4.1691,0,0,0,0,0,-4.1435,-4.1492,-4.1471,-4.1476,-4.1493,-4.1521,-4.1523,-4.1493,-4.1457,-4.1484,-4.1472,-4.1435,-4.1498,-4.1463,-4.147,-4.1512,-4.1576,-4.1583,-4.159,-4.1661,-4.1677,-4.1691,0,0,0,0,0,0,-4.1509,-4.149,-4.1466,-4.1521,-4.1523,-4.1509,-4.1541,-4.1511,-4.1524,-4.1516,-4.148,-4.1479,-4.1531,-4.1526,-4.1488,-4.1582,-4.1531,-4.1539,-4.1583,-4.1598,-4.161,-4.1609,-4.1423,0,0,0,0,0,-4.1532,-4.1556,-4.1538,-4.1588,-4.1591,-4.1566,-4.1577,-4.1555,-4.1556,-4.1556,-4.1547,-4.155,-4.157,-4.1584,-4.1602,-4.1667,-4.1664,-4.1699,-4.1711,-4.1722,-4.1729,-4.1764,-4.1779,-4.1616,-4.1616,-4.1616,0,0,-4.1579,-4.1572,-4.1589,-4.1603,-4.1602,-4.1628,-4.1567,-4.1597,-4.1616,-4.1561,-4.1603,-4.1597,-4.1598,-4.1654,-4.1678,-4.1651,-4.1774,-4.173,-4.1739,-4.174,-4.1772,-4.1788,-4.1801,-4.1621,-4.162,-4.1619,0,0,-4.1679,-4.1676,-4.1717,-4.1718,-4.1717,-4.1701,-4.1712,-4.1702,-4.1696,-4.1738,-4.1697,-4.1721,-4.1756,-4.1759,-4.1765,-4.1869,-4.1836,-4.1876,-4.194,-4.1974,-4.1987,-4.1998,-4.2035,-4.2049,-4.1884,-4.1884,-4.1884,0,-4.1737,-4.1774,-4.1743,-4.1776,-4.1784,-4.1735,-4.1778,-4.1781,-4.1787,-4.1794,-4.1764,-4.1809,-4.1807,-4.1863,-4.1888,-4.1895,-4.1906,-4.1875,-4.1988,-4.1999,-4.2008,-4.2043,-4.2057,-4.1889,-4.1888,-4.1888,-4.1887,0,-4.1847,-4.1873,-4.1908,-4.1914,-4.1926,-4.1964,-4.194,-4.1956,-4.1934,-4.1921,-4.1966,-4.1961,-4.1978,-4.199,-4.1968,-4.2044,-4.2027,-4.1994,-4.1941,-4.2029,-4.2061,-4.2074,-4.1896,-4.1894,-4.1892,-4.1891,0,0,-4.199,-4.198,-4.1993,-4.1996,-4.1993,-4.2014,-4.2051,-4.2067,-4.2082,-4.2089,-4.2119,-4.2152,-4.2121,-4.2128,-4.2107,-4.2137,-4.222,-4.21,-4.2099,-4.2122,-4.2303,-4.2328,-4.2343,-4.22,-4.2202,-4.2204,-4.2303,0,-4.2085,-4.2146,-4.212,-4.2184,-4.2208,-4.2165,-4.2197,-4.22,-4.219,-4.2211,-4.22,-4.2224,-4.2182,-4.2186,-4.2214,-4.2204,-4.2256,-4.2197,-4.2227,-4.2229,-4.2226,-4.236,-4.2385,-4.2479,-4.2316,-4.2318,-4.2319,0,-4.2203,-4.2215,-4.2281,-4.2276,-4.2285,-4.2314,-4.2328,-4.2348,-4.2351,-4.2342,-4.2351,-4.2324,-4.2361,-4.2311,-4.2362,-4.2322,-4.2334,-4.2332,-4.2335,-4.2335,-4.2278,-4.2363,-4.2508,-4.2522,-4.2339,-4.2337,-4.2336,0,-4.23,-4.2333,-4.2377,-4.2381,-4.2375,-4.2397,-4.2396,-4.2397,-4.2409,-4.2421,-4.2429,-4.2446,-4.2455,-4.247,-4.2448,-4.2413,-4.2503,-4.245,-4.2496,-4.2497,-4.2515,-4.2514,-4.2663,-4.2526,-4.2526,-4.2525,-4.2525,0,-4.2408,-4.2451,-4.242,-4.2447,-4.2494,-4.2465,-4.2512,-4.2507,-4.2508,-4.2534,-4.2498,-4.2524,-4.2495,-4.2518,-4.2502,-4.2547,-4.2552,-4.2546,-4.2541,-4.2548,-4.2549,-4.2554,-4.2546,-4.2529,-4.2528,-4.2527,-4.2527,0,-4.2523,-4.2505,-4.255,-4.2542,-4.2541,-4.2576,-4.2569,-4.2594,-4.2583,-4.2617,-4.2623,-4.2606,-4.2632,-4.2613,-4.2638,-4.2628,-4.2687,-4.2673,-4.2685,-4.2681,-4.2728,-4.2724,-4.2884,-4.2903,-4.2755,-4.2757,-4.2758,0,-4.2592,-4.2624,-4.262,-4.2634,-4.2636,-4.266,-4.2672,-4.2646,-4.2661,-4.2668,-4.2693,-4.2716,-4.2732,-4.2775,-4.2766,-4.2786,-4.2772,-4.2827,-4.2774,-4.2781,-4.2772,-4.2769,-4.2772,-4.2837,-4.2838,-4.284,-4.2841,0,-4.2717,-4.2707,-4.2725,-4.2742,-4.2757,-4.2769,-4.2777,-4.2792,-4.2766,-4.2784,-4.281,-4.2823,-4.285,-4.2873,-4.289,-4.289,-4.2862,-4.2858,-4.287,-4.2876,-4.2882,-4.2879,-4.2713,-4.2854,-4.2853,-4.2852,-4.2851,-4.285,-4.2811,-4.2837,-4.2838,-4.2861,-4.2865,-4.2874,-4.2898,-4.289,-4.2911,-4.293,-4.2915,-4.2946,-4.295,-4.297,-4.2974,-4.2999,-4.2976,-4.2993,-4.2997,-4.3001,-4.3008,-4.288,-4.3002,-4.3002,-4.3001,-4.3001,-4.3001,0,-4.2933,-4.2932,-4.2953,-4.2967,-4.2985,-4.2958,-4.2966,-4.2984,-4.3011,-4.3018,-4.3035,-4.3066,-4.3089,-4.3082,-4.3103,-4.3124,-4.3112,-4.3131,-4.3128,-4.3129,-4.3027,-4.3014,-4.314,-4.314,-4.314,-4.314,-4.314,-4.314,-4.2999,-4.3042,-4.3032,-4.3078,-4.3077,-4.3107,-4.3114,-4.3123,-4.3128,-4.3164,-4.3183,-4.3178,-4.318,-4.3201,-4.3222,-4.322,-4.3229,-4.3252,-4.3245,-4.3149,-4.3136,-4.3122,-4.311,-4.3254,-4.3254,-4.3344,-4.3345,-4.3346]},{"header":{"parameterUnit":"m.s-1","parameterCategory":1,"la1":30.2991,"la2":30.254,"lo1":-89.0895,"lo2":-89.0444,"dy":0.0017,"dx":0.0017,"nx":28,"ny":28,"refTime":"2024-05-21T09:00:00:Z","depth":0,"parameterNumber":3,"parameterNumberName":"V-component_of_WINDS"},"data":[0,0,0,0,0,0,0,0,0,0,0,0,0,0,0,0,0,0,0,0,0,0,0,0,0,0,0,0,0,0,0,0,0,0,0,0,0,0,0,0,0,0,0,0,0,0,0,0,0,0,0,0,0,0,0,0,0,0,3.1273,3.1274,0,3.1329,3.1329,3.133,3.1402,3.1403,3.1404,3.1405,3.1459,3.1459,3.1459,0,0,0,0,0,0,0,0,0,0,0,0,0,3.1226,3.1227,3.1273,3.1274,3.1274,3.1329,3.1329,3.133,3.1401,3.1403,3.1404,3.1406,3.1459,3.1459,3.1459,0,0,0,0,0,0,0,0,0,0,0,0,0,3.126,3.1227,3.1273,3.1317,3.1321,3.1328,3.1329,3.133,3.1401,3.1403,3.1405,3.1406,3.1459,3.1459,3.146,3.1428,0,0,3.1461,3.1461,0,0,0,0,0,0,0,0,3.1258,3.1262,3.1309,3.1314,3.1319,3.136,3.1333,3.1363,3.1401,3.1371,3.1405,3.1407,3.1424,3.1428,3.1434,3.143,3.1432,3.1461,3.1461,3.1462,3.1462,0,0,0,0,0,0,0,3.1256,3.126,3.1295,3.131,3.1316,3.1333,3.134,3.1339,3.1387,3.1373,3.1379,3.1384,3.1427,3.1434,3.1436,3.1433,3.1461,3.1462,3.1462,3.1462,3.1407,3.1405,0,0,0,0,0,0,3.1247,3.1258,3.1293,3.1297,3.1292,3.1332,3.134,3.1345,3.1387,3.1395,3.1383,3.1388,3.1432,3.1435,3.1438,3.1404,3.1462,3.1462,3.1462,3.1409,3.1406,3.1405,0,0,0,0,0,0,3.1246,3.125,3.1291,3.1279,3.1285,3.1331,3.1336,3.1345,3.1352,3.1394,3.1403,3.1381,3.1433,3.1437,3.143,3.1407,3.1462,3.1463,3.1411,3.1408,3.1405,3.1336,0,0,0,0,0,0,3.1245,3.1249,3.1238,3.1278,3.1286,3.1282,3.1335,3.1345,3.1353,3.1359,3.1395,3.1402,3.1435,3.1429,3.1431,3.1409,3.1463,3.1413,3.1409,3.1406,3.134,3.1331,3.1323,0,0,0,0,0,3.1243,3.1215,3.1237,3.1241,3.1273,3.1281,3.1285,3.1325,3.1351,3.1339,3.1367,3.1401,3.1409,3.1428,3.143,3.1408,3.1415,3.141,3.1407,3.1344,3.1333,3.1323,0,0,0,0,0,0,3.1169,3.1221,3.1246,3.123,3.1251,3.1293,3.128,3.1311,3.1324,3.1329,3.1377,3.1384,3.1371,3.1389,3.1408,3.138,3.1417,3.1413,3.1369,3.1358,3.135,3.1346,3.1464,0,0,0,0,0,3.1152,3.1155,3.12,3.1182,3.1191,3.1233,3.1239,3.1267,3.129,3.1299,3.1326,3.1346,3.1353,3.1357,3.1366,3.1343,3.1352,3.1329,3.1321,3.1314,3.131,3.13,3.129,3.1391,3.1391,3.1392,0,0,3.1115,3.1143,3.1142,3.1168,3.1187,3.1189,3.124,3.124,3.1241,3.1298,3.1294,3.1314,3.134,3.1325,3.132,3.1339,3.1284,3.1308,3.1302,3.1302,3.1295,3.1285,3.1276,3.1389,3.1389,3.139,0,0,3.1048,3.107,3.1058,3.1077,3.1106,3.1135,3.1132,3.117,3.1186,3.1182,3.1225,3.1228,3.1239,3.1256,3.1266,3.1207,3.1239,3.1209,3.1163,3.1153,3.1145,3.1138,3.1117,3.1109,3.1205,3.1204,3.1204,0,3.0998,3.1004,3.1048,3.1045,3.1055,3.1108,3.1097,3.1112,3.1142,3.1147,3.1169,3.1186,3.1207,3.1197,3.1183,3.1189,3.1187,3.1204,3.1143,3.1136,3.1131,3.1111,3.1103,3.1201,3.1201,3.1201,3.1202,0,3.0941,3.0944,3.0931,3.096,3.0969,3.0961,3.1004,3.1007,3.1035,3.1061,3.1057,3.1084,3.11,3.11,3.1127,3.1094,3.1106,3.1134,3.1173,3.1116,3.1099,3.1092,3.1195,3.1196,3.1198,3.1199,0,0,3.0829,3.0884,3.0878,3.0893,3.0929,3.0932,3.0927,3.0944,3.0946,3.0965,3.0962,3.0971,3.0999,3.101,3.1039,3.103,3.0983,3.1061,3.1062,3.1045,3.0948,3.0926,3.0917,3.1004,3.1003,3.1002,3.0946,0,3.077,3.0765,3.0806,3.079,3.0794,3.0845,3.084,3.0862,3.0887,3.0893,3.092,3.0926,3.0961,3.0969,3.0962,3.099,3.0964,3.0994,3.1001,3.1001,3.0993,3.0908,3.0885,3.0831,3.094,3.0939,3.0938,0,3.07,3.0716,3.0702,3.074,3.0743,3.0738,3.0758,3.0763,3.0789,3.0807,3.082,3.0855,3.0852,3.0889,3.0886,3.0906,3.0911,3.0925,3.0924,3.0926,3.0966,3.0908,3.0815,3.0806,3.0928,3.0928,3.0929,0,3.062,3.0639,3.0633,3.0643,3.0688,3.0684,3.0702,3.0729,3.0737,3.0753,3.0759,3.0774,3.0783,3.0793,3.0831,3.0854,3.0823,3.0863,3.0838,3.0837,3.0829,3.0829,3.0736,3.0832,3.0833,3.0833,3.0833,0,3.0549,3.0538,3.0598,3.0594,3.0583,3.0629,3.0617,3.064,3.0664,3.0665,3.071,3.071,3.0759,3.0765,3.0794,3.0787,3.079,3.0805,3.0813,3.0801,3.0799,3.0805,3.0809,3.0831,3.0831,3.0831,3.0832,0,3.0458,3.0498,3.0495,3.0538,3.0548,3.0538,3.0575,3.0573,3.0601,3.0602,3.0604,3.0648,3.0656,3.0695,3.0712,3.0732,3.0715,3.0731,3.0707,3.0712,3.0685,3.0687,3.0592,3.0582,3.0685,3.0684,3.0683,0,3.0411,3.0404,3.0447,3.0451,3.0468,3.0474,3.0483,3.0528,3.0535,3.0565,3.0559,3.0572,3.0584,3.0595,3.0628,3.0642,3.0658,3.0623,3.066,3.0648,3.0657,3.0657,3.0657,3.0615,3.0614,3.0613,3.0612,0,3.0322,3.0343,3.0354,3.0372,3.0382,3.0398,3.0417,3.0418,3.0468,3.0474,3.0484,3.0494,3.0512,3.0524,3.0543,3.0562,3.0595,3.06,3.0596,3.0583,3.057,3.0577,3.0685,3.0602,3.0603,3.0604,3.0604,3.0605,3.0252,3.0249,3.0278,3.029,3.0309,3.0326,3.0326,3.0355,3.0365,3.0384,3.041,3.0417,3.0443,3.0473,3.0488,3.0494,3.0513,3.0505,3.0503,3.0501,3.0495,3.0569,3.0497,3.0498,3.0498,3.0498,3.0499,0,3.0166,3.0188,3.0198,3.0224,3.0233,3.0265,3.0288,3.0293,3.0299,3.0321,3.0333,3.0345,3.0357,3.039,3.0406,3.0403,3.0419,3.0406,3.0406,3.041,3.0477,3.048,3.0393,3.0393,3.0393,3.0393,3.0393,3.0393,3.0123,3.0119,3.0142,3.0148,3.017,3.0178,3.0189,3.0204,3.0222,3.0234,3.0245,3.0267,3.0294,3.0312,3.0324,3.0334,3.0337,3.0319,3.0333,3.0395,3.0405,3.0415,3.0418,3.0319,3.0319,3.0266,3.0265,3.0265]}]]